Theta_e
312 312 312 312 311 311 312 312 312 312 311 309 304 304 304 304 304 304 304 305 305 305 305 306 307 307 307 305 305 305 304 309 317 322 321 319 316 316 315 315 320 328 335 341 347 349 347 348 351 353 351 349 345 346 349 348 348 349 353 353 344 344 344 344 348 344 344 347 346 347 349 350 351 352 352 350 350 351 349 350 350 349 350 351 352 352 350 350
312 311 312 311 311 311 312 312 311 312 310 306 304 304 304 304 304 304 305 305 306 306 306 307 307 307 307 305 305 304 306 314 321 321 320 317 315 315 313 315 320 327 338 347 350 349 347 347 351 351 348 346 345 346 349 348 349 350 355 352 346 350 349 347 350 348 348 346 344 346 348 349 350 352 352 351 352 351 351 352 351 350 352 351 352 351 350 349
311 311 311 311 311 311 311 311 311 310 307 304 303 304 303 304 304 304 305 305 306 306 306 307 307 308 307 306 305 305 310 318 322 320 324 320 317 317 313 315 318 325 338 344 344 346 348 349 351 349 345 345 346 346 348 349 351 352 354 354 352 351 350 349 350 349 347 344 344 346 347 350 350 352 352 350 352 352 352 353 352 353 353 351 350 351 351 350
311 311 311 311 310 310 310 310 309 306 304 303 303 303 303 303 303 305 306 306 306 306 306 307 308 308 307 307 305 306 314 322 320 323 328 321 320 318 314 315 317 325 336 338 339 343 346 350 350 346 343 346 346 347 349 349 351 352 353 355 354 350 349 349 349 349 346 345 345 346 349 350 350 352 351 349 352 351 350 351 352 353 353 351 349 350 352 350
310 310 310 310 310 310 309 307 305 304 303 303 303 303 303 303 304 305 306 306 306 306 306 307 309 309 308 307 305 310 318 321 318 330 326 318 320 317 316 316 318 328 336 333 334 338 343 347 345 342 342 344 346 347 349 349 349 353 354 353 353 351 351 350 349 350 347 346 346 347 349 349 351 352 351 351 350 347 347 348 350 351 352 351 349 349 351 350
310 310 310 310 309 308 306 303 303 303 303 303 302 303 302 303 304 306 306 306 306 306 305 307 309 310 308 307 309 316 321 314 320 329 324 321 320 317 318 316 320 332 334 331 332 335 340 342 341 343 342 341 346 347 347 348 348 351 353 352 353 352 353 351 351 351 349 347 347 347 348 347 350 351 351 350 347 345 346 347 348 351 352 352 351 350 349 348
309 309 309 309 307 305 303 302 302 303 303 302 302 302 302 304 305 306 306 306 306 307 307 307 309 310 308 309 315 320 319 313 320 324 322 321 318 318 318 317 323 333 333 331 333 335 338 340 340 342 341 340 345 345 345 348 348 350 350 351 353 353 353 352 350 350 348 347 346 345 345 346 349 349 350 351 349 347 348 349 349 352 354 353 351 349 348 348
309 308 308 307 306 304 303 302 302 302 302 302 302 302 303 305 305 306 306 307 308 309 311 309 310 311 309 314 321 319 315 316 318 319 318 317 317 318 320 324 330 334 334 332 334 336 337 339 339 340 339 339 343 344 347 350 349 350 349 349 352 352 352 351 349 348 346 347 345 344 344 345 347 347 347 350 349 348 350 350 350 352 353 352 349 349 349 349
308 308 308 307 306 305 303 302 302 302 302 302 302 302 304 305 305 306 306 310 312 313 314 313 312 311 309 317 321 312 315 316 315 315 315 320 325 322 323 332 336 335 335 334 334 335 336 339 339 338 339 337 342 345 348 349 347 350 350 348 351 350 349 348 347 347 345 346 345 344 343 342 344 346 347 348 348 348 350 352 353 353 352 351 350 348 349 348
308 308 308 307 307 306 303 302 302 302 302 302 302 303 305 305 305 307 310 314 315 316 316 314 313 311 311 319 316 311 318 316 319 321 319 328 333 327 328 335 336 336 336 334 334 334 335 338 337 338 339 339 343 344 348 348 344 348 350 349 350 348 348 347 345 346 344 344 345 344 343 340 341 346 348 347 347 349 352 354 353 354 353 352 350 348 350 349
308 308 308 308 307 305 303 302 302 302 302 301 302 304 305 305 306 309 313 315 314 315 316 316 313 312 315 318 313 313 318 319 324 327 327 333 335 330 333 336 335 336 334 335 335 333 335 337 337 339 340 341 342 343 346 346 343 346 347 347 346 344 345 343 343 343 342 342 341 341 342 339 339 345 347 345 349 351 352 355 354 354 354 353 351 350 351 351
308 308 308 307 307 305 303 302 302 302 302 302 303 304 305 305 308 312 314 313 313 315 316 316 313 314 318 315 313 315 319 324 327 330 334 336 336 334 335 336 335 334 335 336 334 334 334 335 338 339 337 338 341 341 341 344 344 343 344 344 342 341 339 338 339 338 338 339 339 338 336 336 341 346 346 344 350 352 351 355 355 354 355 353 352 351 351 353
307 308 307 307 306 304 302 301 302 302 301 302 304 304 305 307 311 314 314 313 315 316 316 316 314 316 320 315 314 315 316 324 326 331 338 338 337 336 336 336 334 334 336 335 335 335 334 335 339 338 334 334 338 338 336 340 342 341 341 340 337 333 334 336 337 337 338 337 337 335 327 330 343 347 345 345 350 353 351 354 355 354 355 353 353 352 352 352
307 307 307 306 304 302 301 301 301 301 301 303 304 304 305 309 314 316 315 314 315 316 316 316 316 318 320 318 315 314 313 319 321 327 336 338 335 334 335 335 333 335 336 335 336 335 335 337 337 335 333 332 334 334 332 334 337 338 336 334 334 325 327 337 335 335 338 335 334 335 324 327 342 345 343 345 350 352 351 353 355 354 355 354 354 353 351 352
306 306 305 303 301 301 301 301 301 301 302 303 304 305 307 312 317 317 316 314 315 317 317 316 317 320 318 316 315 315 313 315 318 324 330 332 331 330 334 334 334 335 334 333 334 335 335 336 335 333 333 331 332 332 330 331 333 335 327 324 329 323 325 338 334 333 338 335 335 334 325 329 339 341 341 346 349 350 350 353 354 353 355 354 354 353 351 352
304 304 303 301 301 301 301 301 301 301 302 303 304 306 310 315 319 318 317 315 315 316 317 319 318 320 319 316 319 320 317 314 316 321 325 327 325 326 331 334 333 333 331 329 332 336 335 336 334 332 334 331 329 329 327 325 325 332 327 318 322 322 324 333 332 333 336 334 336 334 330 333 337 338 341 346 347 348 349 351 354 354 355 355 354 354 352 352
304 304 302 301 301 301 301 301 301 301 302 303 305 308 314 318 318 319 318 318 317 318 321 321 318 320 320 316 318 319 319 317 315 318 320 322 321 322 329 331 331 330 329 326 328 332 333 334 334 333 335 332 329 328 322 315 315 322 325 320 322 326 324 326 330 333 332 333 336 336 335 336 337 338 341 345 346 346 348 349 353 355 356 356 355 354 353 353
304 303 301 301 301 301 301 301 301 302 303 304 306 309 315 317 318 319 321 321 321 322 324 320 317 321 321 317 317 317 319 320 319 318 317 318 318 320 327 329 328 328 326 325 327 329 329 332 334 333 334 331 330 327 317 314 316 316 318 318 319 326 326 326 329 332 332 333 334 336 335 337 337 337 340 345 344 345 347 347 351 355 355 357 357 354 355 354
304 302 301 301 301 301 301 301 301 302 303 304 307 310 315 318 319 322 323 323 322 325 327 320 318 323 321 318 318 318 320 320 322 321 318 318 316 319 325 326 326 326 325 325 325 327 328 329 331 329 327 328 329 327 322 322 323 321 320 320 318 320 324 330 333 332 332 332 334 336 334 336 336 334 339 343 343 344 345 346 349 354 356 356 356 355 355 355
303 302 301 301 301 301 301 301 302 304 305 306 309 312 315 315 319 323 319 317 316 319 320 317 318 322 321 320 319 319 320 320 321 322 322 319 316 319 323 324 325 325 324 324 324 326 327 326 328 326 325 327 327 326 327 326 325 325 323 321 321 320 321 332 336 333 332 330 332 337 336 336 336 333 336 340 343 344 344 346 349 353 356 356 357 355 356 356
302 301 301 301 301 301 301 301 303 305 306 309 311 312 311 309 312 314 311 311 313 313 313 314 316 318 320 322 321 320 319 319 320 322 323 320 319 322 323 325 325 323 324 324 324 326 326 324 325 327 326 326 326 326 326 325 325 324 322 319 319 320 322 331 336 332 332 330 330 336 336 334 336 335 334 336 341 344 343 345 348 352 356 356 357 356 355 357
302 301 301 301 301 302 302 302 304 306 308 310 311 310 310 309 309 310 309 310 312 313 312 313 314 315 317 320 321 320 319 320 320 321 323 321 320 323 323 324 325 324 325 324 325 325 323 322 324 326 326 324 326 325 324 325 324 323 322 319 316 320 324 327 333 333 332 330 330 335 333 333 336 334 334 332 339 345 344 344 347 351 355 356 357 357 356 357
302 301 301 301 301 302 302 302 304 307 309 310 310 309 309 309 309 309 310 310 312 313 313 313 313 313 314 316 318 318 318 320 319 321 323 321 320 322 322 323 324 325 325 324 325 323 319 322 325 325 324 324 325 325 324 324 323 323 321 316 314 321 322 319 326 333 333 330 331 333 330 331 335 333 334 332 336 343 343 342 345 349 353 354 354 356 357 357
302 301 301 301 301 302 302 303 306 307 309 310 309 309 308 308 309 310 311 312 314 315 315 315 315 314 315 316 317 317 318 319 320 320 323 322 321 320 322 323 324 325 326 326 326 324 322 324 325 324 323 325 325 326 325 321 319 321 320 317 316 322 322 320 327 332 331 329 331 330 322 324 332 334 334 333 334 341 343 343 346 348 351 353 353 355 356 357
302 301 301 301 302 302 303 306 307 307 309 311 308 308 308 308 310 310 311 314 315 316 316 315 315 315 316 316 317 317 317 318 319 320 322 323 322 320 322 323 323 324 325 325 326 325 325 325 325 324 323 325 325 324 324 321 316 316 320 321 319 322 323 324 328 327 322 321 329 328 316 317 329 333 334 335 339 342 343 346 348 350 351 352 354 355 355 356
302 301 301 301 301 302 304 307 307 307 309 310 307 307 308 309 310 310 313 315 314 317 317 316 317 316 317 316 316 317 318 319 320 320 322 323 322 322 322 322 323 324 325 326 327 325 325 326 326 325 325 326 326 322 322 323 316 312 319 323 322 323 322 322 324 322 315 315 328 330 319 316 322 329 335 339 343 345 346 349 350 352 353 353 355 355 355 355
302 302 301 301 301 303 306 307 307 308 308 307 307 307 307 310 310 310 315 314 311 318 318 315 316 316 316 317 316 318 318 320 321 320 321 322 323 323 322 322 323 323 324 326 322 322 326 327 326 326 326 326 323 320 322 325 317 313 320 324 323 323 321 322 322 318 316 318 325 329 324 317 316 324 336 339 340 345 347 350 351 351 354 353 354 354 355 355
303 302 301 301 301 303 306 307 308 309 306 306 307 307 308 311 310 313 318 313 312 319 319 314 315 315 315 316 317 319 318 319 321 320 321 322 322 323 323 323 323 323 325 323 318 322 327 326 326 327 325 323 322 321 323 324 320 318 323 324 324 324 322 322 321 316 318 318 316 320 323 318 315 323 336 337 335 339 344 347 349 351 352 353 353 353 353 355
303 302 302 301 301 304 307 307 309 309 306 306 307 307 309 311 312 315 317 315 315 318 317 314 314 314 316 316 317 319 319 318 318 319 321 321 321 322 323 323 323 322 323 323 321 324 326 325 326 327 325 324 323 324 324 324 324 322 323 325 325 325 323 323 320 315 316 315 312 315 318 317 315 318 327 331 329 334 339 340 344 349 351 352 353 352 352 354
303 303 302 301 303 306 307 308 309 307 306 306 307 308 311 313 315 315 314 316 317 317 316 315 314 314 316 316 317 318 319 318 317 318 320 321 321 321 322 323 322 322 323 324 323 325 324 325 326 326 326 325 324 325 325 324 325 323 323 324 323 323 323 322 320 316 313 313 313 314 316 317 314 315 321 327 330 334 337 336 336 342 349 353 353 351 351 353
303 303 302 302 304 306 307 308 307 306 306 307 307 309 313 315 315 314 314 314 313 316 317 316 316 316 317 318 318 318 319 319 317 318 320 321 321 321 322 322 322 322 321 320 322 323 323 324 326 326 325 325 324 325 325 325 325 323 324 322 317 316 318 316 316 315 313 312 312 314 317 315 311 314 323 329 332 335 336 335 334 338 346 352 352 350 350 352
303 302 301 302 303 305 306 307 306 306 307 307 307 310 314 315 313 313 314 311 310 316 318 317 317 318 318 318 318 318 319 319 318 319 321 322 322 321 322 322 322 319 315 315 318 319 320 322 324 325 325 326 324 323 324 325 324 324 322 317 313 312 315 314 312 313 312 311 313 316 316 313 311 317 326 330 330 332 334 334 333 335 341 348 352 351 350 351
302 301 303 303 304 306 306 306 306 307 307 307 308 311 312 314 314 313 312 311 313 316 318 317 317 318 317 318 318 318 318 319 318 319 321 322 323 322 321 322 323 320 316 315 315 312 315 320 323 324 324 325 324 320 318 320 322 322 318 313 311 313 315 315 313 312 313 311 313 316 315 311 311 319 328 329 328 330 332 333 333 333 334 343 351 351 348 350
302 303 305 305 305 306 305 305 307 307 307 307 309 310 310 311 313 312 313 315 316 316 316 316 317 317 317 318 319 318 317 318 318 318 320 322 322 321 321 322 322 323 321 317 315 312 311 314 319 322 323 324 325 322 321 322 322 322 322 319 313 312 314 315 312 311 311 311 311 314 314 310 309 318 329 328 327 329 330 330 330 332 332 336 347 350 347 348
302 304 306 306 305 305 305 305 306 306 308 308 307 308 308 309 311 311 314 316 315 315 315 316 316 316 317 318 319 318 317 317 317 318 320 320 320 322 322 322 322 324 322 316 316 316 311 312 320 324 323 324 323 323 325 324 321 322 324 319 314 315 316 313 312 311 310 310 311 311 312 314 317 324 331 328 327 328 328 329 328 331 332 333 341 347 345 346
304 306 306 306 305 305 305 305 307 308 308 307 306 306 307 308 310 313 315 315 313 314 314 315 315 314 315 317 318 319 318 317 318 317 318 320 321 323 323 323 323 323 323 319 318 318 311 314 323 324 322 324 323 323 325 323 320 321 319 315 318 323 320 312 310 313 312 311 312 311 312 316 319 323 326 327 327 328 328 329 329 331 333 334 339 345 346 345
307 307 306 306 305 304 305 306 308 309 308 306 305 305 306 308 310 313 314 313 312 313 313 316 316 314 314 315 317 319 318 317 318 315 315 318 318 321 323 322 322 324 324 322 322 322 316 314 322 325 322 323 324 323 324 324 324 321 316 317 322 323 321 316 312 313 312 310 310 310 310 312 312 316 325 327 325 326 328 328 329 331 333 335 339 345 346 346
308 307 307 306 304 304 306 307 309 310 308 307 306 306 307 308 309 311 311 311 311 312 313 315 317 315 315 316 316 319 318 316 317 316 314 316 317 317 320 321 320 321 323 322 323 325 321 314 319 326 323 323 325 323 321 323 325 323 320 323 322 316 315 316 313 313 313 311 311 309 309 310 310 314 323 327 325 326 328 328 329 329 330 334 337 342 346 347
308 306 306 305 303 305 306 307 309 310 309 307 306 307 307 308 309 309 310 310 310 311 312 314 315 316 316 317 316 318 318 316 318 317 314 316 317 316 317 319 320 320 321 323 324 325 324 316 315 323 325 323 324 321 316 318 323 324 323 324 323 317 315 316 315 313 312 313 312 310 309 310 314 320 324 327 329 329 327 329 329 328 329 331 335 338 343 347
307 306 306 304 303 305 306 307 309 309 308 306 306 306 307 307 308 308 309 309 310 310 311 312 314 315 315 316 316 317 318 317 318 319 317 317 317 316 316 316 319 321 321 323 324 324 325 319 314 320 324 321 319 320 319 319 321 320 318 318 319 319 319 318 316 313 312 312 312 312 310 310 318 328 327 327 330 329 328 330 330 330 329 330 333 334 339 346
306 306 305 304 304 305 306 307 307 306 306 305 305 305 305 306 307 307 308 308 309 309 310 311 312 313 314 314 315 315 317 317 318 319 318 317 317 315 315 315 316 321 323 323 324 323 324 321 315 315 317 315 318 323 324 324 324 321 319 318 318 318 316 315 316 315 312 311 311 312 311 312 320 329 328 327 328 327 329 330 329 331 330 330 332 332 337 346
305 305 304 304 304 305 307 306 306 305 305 305 305 305 305 306 306 306 307 308 309 309 309 310 311 312 312 313 314 314 315 317 318 319 318 317 316 315 314 314 316 321 324 324 323 324 327 326 317 313 316 319 323 326 324 324 326 325 323 323 323 321 315 312 313 314 313 312 311 311 310 315 325 329 327 328 328 327 327 328 328 329 329 330 331 331 336 344
304 304 305 305 304 305 306 305 305 305 305 305 305 304 304 305 305 306 307 308 309 309 309 310 310 311 311 312 313 314 314 316 317 318 318 317 315 313 312 314 316 321 324 325 324 324 325 326 319 315 319 322 323 325 325 326 326 323 323 324 324 321 319 317 316 317 314 311 311 311 310 316 326 331 328 328 328 327 327 328 329 329 328 330 331 332 337 343
303 304 305 305 305 305 305 304 304 305 305 305 305 304 304 305 305 306 306 307 309 310 310 311 310 310 311 311 312 313 313 315 316 316 317 317 315 313 312 314 316 319 320 321 323 322 321 324 320 316 317 319 318 320 321 322 323 322 323 325 324 324 324 322 320 319 316 312 312 312 310 314 326 334 331 329 328 327 327 327 328 329 330 330 329 335 344 348
303 304 305 305 305 305 304 304 304 305 305 305 305 304 305 305 305 305 306 307 309 309 309 310 310 310 311 311 312 312 313 314 316 316 316 316 314 313 312 313 315 317 317 317 320 320 322 326 323 317 316 316 316 316 316 318 320 321 324 325 324 324 323 320 316 314 314 315 315 312 311 316 328 333 330 328 328 328 328 328 328 329 330 331 334 340 346 350
303 304 304 304 304 305 304 303 304 304 304 304 304 305 305 305 305 304 305 307 307 307 308 309 309 309 311 311 312 312 312 312 314 315 315 315 315 313 312 313 314 315 317 318 318 320 326 329 327 325 323 320 320 322 323 323 319 317 319 322 324 325 324 321 315 312 315 317 315 315 317 317 323 329 329 328 329 329 329 328 328 329 330 335 342 347 345 345
303 303 303 304 305 304 304 303 304 304 304 304 305 305 305 305 305 305 305 306 306 307 308 309 309 309 310 312 312 313 312 313 313 314 314 315 315 313 312 313 313 315 317 317 316 320 326 325 326 330 327 323 324 325 325 324 321 318 318 319 321 324 324 320 315 315 320 316 312 320 325 318 320 329 330 329 329 329 329 328 328 331 334 336 341 345 344 343
304 303 303 304 304 304 303 303 304 304 303 304 305 306 305 305 305 305 305 305 305 306 308 309 308 308 309 310 311 313 314 313 314 314 314 314 314 314 314 313 313 314 315 315 315 319 322 322 322 324 323 321 322 322 322 324 324 323 322 320 321 322 322 319 317 321 323 317 314 323 327 322 325 330 329 330 330 329 329 329 329 330 333 333 336 337 337 337
304 303 303 303 303 303 303 303 303 303 303 304 305 305 305 305 305 305 305 305 305 306 307 307 307 306 308 309 310 312 314 314 314 314 314 314 314 314 315 315 314 313 313 314 315 316 319 322 322 320 319 320 320 321 322 323 323 323 323 324 323 324 322 321 322 324 324 321 322 327 328 326 329 330 329 329 329 328 328 328 329 330 329 330 332 332 331 330
304 304 304 304 303 303 303 303 303 304 304 304 305 305 305 304 305 305 305 305 305 307 306 306 306 306 307 308 309 310 311 311 312 313 313 313 314 314 315 315 314 313 313 313 315 315 317 320 320 318 318 319 319 320 321 321 322 321 321 323 324 323 324 323 324 325 324 323 325 327 326 326 329 330 330 329 329 328 329 328 328 330 329 329 330 329 331 331
304 304 304 304 304 303 303 303 303 304 304 305 305 305 304 304 305 305 305 305 306 307 306 306 306 306 307 308 308 309 309 309 309 310 310 311 312 312 313 313 312 312 313 314 314 315 316 318 319 318 318 318 318 319 319 320 320 318 318 321 322 321 322 322 323 325 323 323 324 323 321 325 329 329 329 329 329 328 330 329 328 329 329 329 329 329 330 332
305 305 305 305 305 304 303 303 302 303 304 304 304 304 304 304 304 304 305 305 306 306 306 305 306 306 307 308 308 308 308 307 307 308 308 309 310 310 311 311 311 311 313 313 313 314 315 316 317 318 318 317 318 318 317 318 318 317 318 321 322 322 323 323 324 326 326 324 323 320 321 327 330 329 328 329 329 328 329 328 328 330 331 330 330 330 330 331
Wind_Speed
23 23 23 23 22 22 22 22 23 22 22 23 25 27 26 27 27 28 27 25 23 22 22 21 20 20 19 19 20 20 20 17 12 10 16 23 18 16 14 7 17 22 18 19 23 23 22 20 19 20 15 10 8 7 9 8 6 5 4 5 4 3 0 3 4 5 3 4 5 2 7 6 6 8 6 7 7 8 10 7 7 7 4 6 16 26 30 30
24 24 24 24 24 24 24 24 23 23 22 25 28 29 29 29 29 29 27 25 23 22 21 20 20 19 18 18 19 18 19 16 15 17 25 28 21 19 16 13 19 24 23 23 25 24 21 19 20 19 12 8 7 8 9 8 7 7 4 4 4 1 2 3 4 6 5 7 6 1 7 6 5 8 7 7 8 10 11 9 10 9 9 12 20 28 30 30
24 24 24 24 25 25 25 25 24 24 25 29 31 31 32 31 31 30 27 25 23 22 20 20 19 18 16 17 17 16 15 14 15 17 21 20 19 24 18 18 22 25 25 23 25 23 20 19 21 18 11 8 7 8 9 7 7 7 6 5 3 1 1 1 2 4 7 9 7 1 5 6 5 7 7 6 7 10 9 9 11 11 13 16 20 26 29 29
26 25 26 26 26 26 26 25 25 27 30 33 34 33 33 34 34 31 28 25 22 20 20 19 17 16 14 14 14 12 11 13 11 6 5 2 6 14 18 22 26 28 25 22 22 20 19 20 21 17 11 8 8 9 9 8 7 6 7 6 1 1 4 3 0 4 6 9 7 3 3 6 4 5 7 5 5 7 8 10 12 13 17 19 20 24 27 28
27 27 27 27 27 27 26 27 29 33 35 36 35 35 35 35 35 31 27 24 22 20 19 18 16 15 12 11 10 9 8 8 2 6 11 9 10 7 14 25 28 28 24 20 20 20 19 20 18 15 10 8 9 9 10 11 8 5 8 9 5 4 3 3 1 4 6 7 5 2 1 3 5 7 8 7 5 2 3 9 12 13 18 21 22 23 25 25
28 28 28 27 27 28 29 31 34 36 37 37 36 36 37 37 34 29 26 24 23 22 20 17 15 13 9 7 6 5 7 5 4 8 10 8 7 5 8 24 29 27 23 20 20 20 19 19 17 13 10 10 12 11 10 13 11 7 8 8 8 9 7 3 5 6 6 7 4 3 2 2 6 8 8 10 8 1 4 6 10 13 18 21 23 22 23 24
28 28 29 28 29 31 33 35 37 38 39 39 38 38 38 36 32 29 27 25 25 23 21 17 14 11 5 2 1 4 8 12 7 3 6 3 4 4 7 24 30 25 22 22 20 18 18 19 18 14 12 11 12 13 10 12 13 10 8 8 8 9 10 8 8 8 8 7 6 6 5 5 8 7 7 11 10 2 4 7 11 14 19 22 22 22 22 23
29 29 28 29 31 33 35 37 38 39 40 40 39 40 38 34 31 29 28 27 25 23 20 15 13 9 3 3 5 7 10 18 15 8 11 13 10 4 12 25 29 26 24 24 22 20 19 20 20 14 13 12 10 13 10 10 14 13 11 8 7 9 9 9 9 10 9 7 7 8 9 9 8 8 7 9 10 6 4 8 13 16 19 20 21 22 21 21
29 29 29 30 32 34 36 38 40 40 41 41 41 40 36 32 31 31 29 26 22 19 17 13 12 7 6 6 6 8 10 14 14 12 14 12 9 11 21 26 29 27 24 26 25 24 19 17 20 15 12 12 9 11 12 9 9 12 14 10 9 11 10 10 10 11 9 7 7 9 11 9 8 9 9 9 10 9 8 11 15 18 19 19 19 20 20 20
30 30 30 31 32 34 37 39 41 42 42 43 41 37 33 32 32 30 26 21 18 16 14 11 10 8 9 8 8 9 6 5 6 9 9 7 11 19 26 27 30 28 24 25 25 25 19 16 19 14 8 9 9 9 12 11 4 6 11 11 12 12 10 10 12 11 9 8 9 11 11 9 8 8 7 7 10 12 12 14 16 17 18 18 18 18 19 20
30 30 31 32 32 34 39 41 42 43 44 43 39 34 32 33 31 26 21 18 17 15 12 10 12 13 11 8 10 8 1 1 4 3 4 10 17 25 27 26 30 29 25 23 24 26 23 19 18 11 5 7 9 9 11 12 7 5 7 9 12 13 12 12 13 12 9 8 10 11 11 9 7 9 9 6 11 15 14 15 17 16 16 17 18 18 16 17
30 30 31 31 31 35 40 43 44 44 45 42 35 32 33 33 27 20 16 15 15 12 10 11 15 16 10 7 13 13 2 3 3 1 5 12 17 22 22 23 28 28 25 22 22 27 25 20 18 13 7 5 9 8 8 11 10 9 8 9 12 12 13 14 14 12 9 8 8 8 10 10 11 13 13 9 11 15 15 15 17 16 15 16 17 16 14 16
30 31 32 32 33 38 43 44 44 45 45 38 32 31 33 30 21 13 12 13 11 7 8 13 16 14 10 7 11 16 12 4 2 2 7 11 14 15 15 19 24 22 22 21 21 25 22 18 19 16 9 6 9 4 1 9 10 10 10 9 9 10 12 13 14 12 11 9 7 7 7 7 12 15 12 10 14 15 15 15 16 15 15 15 15 15 15 17
31 32 33 34 37 43 45 45 44 45 43 35 30 32 31 23 12 9 11 11 7 1 9 14 15 10 9 9 7 10 14 9 6 6 9 12 14 12 13 17 19 17 17 17 17 21 19 17 18 15 10 9 6 4 3 7 8 9 10 9 7 8 8 8 9 10 10 8 8 8 6 5 8 12 11 10 14 16 14 15 15 15 14 14 15 15 15 17
33 33 35 39 42 44 45 45 45 45 40 31 29 31 26 15 6 8 11 9 6 8 13 14 12 8 6 11 9 8 11 11 12 14 12 14 15 12 15 18 16 14 13 10 11 16 15 16 16 12 11 9 5 5 8 7 6 8 8 8 9 9 7 8 9 10 10 9 11 10 7 7 5 7 9 11 13 15 13 14 15 16 16 15 15 16 15 16
35 35 38 43 44 44 45 45 45 43 36 28 29 28 18 9 3 6 9 10 10 12 12 9 9 8 6 5 4 6 11 13 16 18 15 15 14 10 15 19 15 13 11 7 8 11 12 13 13 10 10 10 8 8 8 8 8 8 8 9 10 11 10 8 9 9 11 8 10 11 8 8 4 5 8 11 12 14 12 13 16 16 16 16 14 15 15 15
35 36 41 44 44 45 44 45 44 39 31 27 29 22 10 5 1 5 8 8 8 6 4 3 6 7 7 3 3 5 11 13 14 18 20 18 13 9 15 16 14 14 11 8 9 11 12 11 10 9 9 9 10 10 9 10 10 8 9 9 10 10 10 8 7 8 9 8 10 12 10 10 6 4 8 10 11 12 11 12 15 15 15 15 14 14 15 16
36 38 43 44 46 46 43 45 42 34 29 27 25 15 7 5 3 2 2 1 3 5 4 3 6 6 7 8 6 2 6 12 12 16 21 22 17 12 15 14 12 15 12 8 10 12 11 10 9 9 10 10 11 12 12 12 11 11 11 9 10 10 9 10 7 6 8 9 10 11 11 12 11 7 7 10 10 11 11 10 12 14 15 15 14 14 15 16
36 40 44 44 46 45 43 44 38 29 28 25 20 11 5 5 5 5 5 6 5 6 3 4 10 5 2 6 8 2 4 6 9 13 17 20 20 17 16 14 13 16 13 9 11 13 10 9 10 10 11 13 15 15 14 12 11 13 13 10 12 11 10 13 8 4 5 8 11 13 12 11 11 8 6 9 10 10 10 10 10 13 14 15 15 14 15 17
38 42 45 45 47 45 43 42 32 26 24 20 19 11 4 4 3 3 3 8 10 12 12 7 12 12 6 1 3 3 4 6 9 12 16 19 21 20 16 14 14 15 13 12 12 13 11 10 12 13 14 16 18 17 16 14 10 11 12 11 14 13 10 12 9 5 5 8 11 13 13 12 10 8 7 8 10 10 10 11 12 13 14 15 16 16 17 16
41 44 45 46 47 44 42 38 27 21 18 15 16 7 3 8 6 4 7 11 14 15 19 18 16 18 16 8 1 2 3 7 9 11 16 20 21 19 14 15 16 13 14 16 13 11 12 13 15 17 17 16 17 18 17 16 13 10 11 10 12 13 11 12 8 6 6 7 11 12 13 14 12 11 10 8 10 11 11 13 14 15 15 15 17 18 17 14
42 44 44 46 46 44 41 31 21 19 15 12 12 8 7 8 6 7 9 11 14 13 18 21 19 19 20 19 13 4 4 7 10 11 16 20 20 18 15 16 16 14 16 17 12 11 13 15 18 18 17 16 15 17 18 18 15 11 10 10 11 12 12 12 9 7 7 6 9 13 13 14 13 12 11 9 10 11 11 13 14 15 16 15 16 16 16 15
42 43 44 44 43 43 38 24 18 19 13 10 13 10 7 7 8 9 8 9 15 14 16 19 19 18 19 20 19 14 11 10 12 13 18 19 18 17 16 17 18 16 18 19 15 13 12 14 19 19 16 18 16 15 17 16 13 12 11 10 11 12 11 10 9 9 9 7 10 13 11 12 12 12 12 12 12 11 12 14 14 14 15 15 16 15 16 17
42 42 43 43 41 41 32 16 14 17 10 6 11 11 9 9 10 9 7 8 12 11 12 17 15 15 17 14 13 17 16 13 12 13 19 20 16 16 17 18 19 17 17 23 22 17 14 10 14 20 19 19 17 15 16 13 10 14 16 14 12 13 14 10 6 6 6 8 10 11 10 11 13 14 14 12 12 13 12 13 14 13 14 14 15 15 16 17
42 41 42 42 38 38 27 8 11 19 11 3 9 15 13 12 10 8 7 6 8 7 6 11 10 10 13 12 12 15 14 14 15 14 17 21 18 15 15 14 15 17 20 25 22 17 17 10 10 19 20 19 18 16 17 14 10 13 17 18 16 13 14 13 8 6 6 8 9 9 10 10 12 16 16 9 10 12 11 12 14 13 13 13 14 14 15 17
41 40 41 40 36 35 22 6 12 20 11 4 13 19 16 13 10 7 6 4 8 5 7 7 6 7 10 11 12 12 10 14 17 16 16 21 20 14 13 11 10 17 21 20 15 10 14 13 12 17 19 19 20 16 17 17 11 11 13 17 19 17 15 14 12 9 8 8 8 8 10 9 10 14 12 8 9 11 11 12 13 13 13 13 13 14 15 16
41 39 39 39 34 29 17 7 14 17 8 9 19 21 17 13 9 6 4 5 6 4 8 3 3 6 7 9 14 13 5 6 13 18 19 21 21 15 14 14 12 15 15 12 11 10 13 17 16 17 19 17 17 15 16 18 12 11 10 11 16 19 18 15 13 10 9 9 8 9 10 10 10 12 11 10 11 12 12 13 13 13 14 15 14 15 16 17
41 39 38 38 32 21 11 11 14 12 10 16 21 19 16 12 8 5 5 6 2 5 6 3 3 4 5 8 17 13 3 6 9 16 21 24 22 15 15 19 17 17 18 14 12 12 15 20 19 19 18 13 14 14 16 18 14 11 7 6 10 14 17 15 12 11 10 10 10 11 12 10 10 12 12 12 13 13 13 14 14 14 15 16 16 17 18 18
40 39 37 38 30 15 10 12 11 10 15 20 21 19 16 10 6 4 5 5 3 4 2 3 4 5 6 9 16 14 4 3 3 8 19 24 22 16 13 17 18 18 21 18 14 11 13 18 19 18 15 12 13 14 16 18 15 12 7 5 8 10 12 13 11 10 10 11 13 14 14 11 11 11 11 13 14 14 14 13 14 15 16 16 16 17 18 17
39 38 37 37 26 13 12 11 8 12 20 21 21 21 15 7 5 5 7 5 1 3 2 4 4 4 8 9 12 14 12 7 2 7 15 17 21 19 10 13 16 15 18 18 17 15 10 11 15 15 13 13 12 12 15 17 16 13 9 7 8 8 9 10 9 8 10 13 14 16 16 13 12 11 11 12 12 13 14 13 13 15 16 17 17 17 17 16
39 38 36 31 19 12 13 10 11 18 21 23 24 19 10 5 4 7 7 1 2 1 3 4 3 3 6 7 7 11 15 11 5 10 13 12 17 18 11 11 13 11 14 15 16 18 13 10 12 13 15 15 12 12 13 15 16 13 9 8 8 7 7 7 7 9 11 12 11 14 18 16 15 11 9 12 14 15 14 13 14 14 16 17 16 16 16 16
38 37 32 22 10 8 10 13 19 21 20 24 22 12 6 5 7 10 6 2 1 1 4 2 1 2 4 6 6 10 13 12 9 11 13 13 15 16 16 14 12 12 14 13 14 17 16 13 12 14 17 17 14 12 11 12 14 13 10 9 9 7 7 8 9 10 11 10 8 10 14 15 15 12 10 12 14 16 15 13 14 14 15 16 16 16 15 15
38 35 27 16 6 6 11 16 20 19 20 23 15 6 5 8 8 7 7 6 2 7 8 7 8 9 8 7 6 9 10 11 13 13 14 15 14 16 19 19 17 15 11 11 13 13 13 13 16 16 14 17 17 12 10 11 13 13 11 10 10 8 8 9 9 9 9 9 10 10 9 11 13 10 14 17 14 13 13 12 13 13 13 14 16 17 15 16
36 31 21 12 5 7 13 18 18 17 19 18 9 5 8 11 7 3 5 5 8 11 10 11 13 13 10 8 4 5 7 9 13 14 13 15 13 14 17 20 23 17 9 11 12 12 14 13 17 19 12 16 21 16 12 11 12 14 12 11 11 9 8 7 7 9 9 8 11 12 8 8 8 2 6 14 16 15 14 14 14 13 13 13 14 16 15 16
33 24 15 8 5 9 15 17 17 17 15 11 6 6 9 10 7 5 4 7 10 11 13 15 14 12 9 8 4 3 4 5 12 14 12 13 13 13 15 17 22 19 12 11 9 11 17 12 13 20 15 16 22 18 14 13 11 12 12 11 11 10 8 5 4 6 6 6 9 11 8 6 4 0 1 5 10 15 15 15 16 15 15 14 14 15 15 15
27 19 11 5 8 14 17 17 17 15 11 7 6 7 7 8 6 4 7 10 11 12 16 15 10 9 8 7 6 5 3 2 9 12 10 13 13 12 14 12 15 20 15 11 8 10 13 10 12 20 19 18 21 19 18 14 9 9 12 13 12 11 10 7 5 4 4 7 7 8 9 8 5 6 8 9 9 11 13 13 14 14 14 14 13 13 15 15
21 17 10 5 11 17 17 17 15 12 8 6 7 7 5 6 6 7 8 11 12 13 13 9 3 4 6 5 4 5 2 3 8 10 9 13 9 3 5 2 2 10 8 5 8 9 9 8 11 19 21 19 19 20 20 18 12 8 11 13 11 11 11 8 7 6 6 9 8 9 12 10 8 7 8 15 15 13 14 14 14 14 13 13 13 13 15 16
18 17 9 6 16 19 18 17 13 9 6 5 8 7 5 6 7 9 10 11 12 12 10 8 4 4 5 4 1 1 2 4 8 9 9 12 6 4 2 1 4 2 4 5 5 7 8 7 9 17 20 18 17 17 17 19 20 12 9 11 11 10 10 8 7 8 9 9 8 11 13 10 9 6 4 11 15 15 15 15 14 15 14 14 14 15 16 16
16 12 4 11 22 21 19 17 12 7 5 6 6 5 5 7 8 10 11 11 11 10 9 9 7 5 5 7 7 4 4 4 3 6 7 6 3 4 6 2 2 5 6 4 5 5 6 7 7 13 18 17 15 14 13 15 19 15 10 11 11 8 8 9 8 7 8 8 7 9 10 8 8 9 8 8 10 11 13 13 14 15 15 14 14 14 15 15
12 6 2 17 25 23 22 16 10 5 5 5 5 5 7 9 9 10 11 11 9 8 9 10 9 8 8 8 9 6 5 6 5 4 3 1 2 5 8 7 4 6 5 4 8 6 6 8 5 10 16 16 12 12 15 14 15 14 12 12 12 9 6 7 9 8 8 8 7 7 7 4 1 5 11 12 11 10 10 11 11 12 14 14 13 13 13 14
10 5 5 19 24 23 21 12 5 4 5 4 5 6 8 9 9 10 11 11 9 8 10 12 11 10 9 9 8 6 6 6 5 4 1 2 2 4 7 9 8 7 4 5 9 7 5 7 8 8 11 13 12 13 17 17 16 15 12 12 13 11 9 8 9 10 9 8 7 6 6 3 3 3 5 7 9 10 10 10 10 10 12 12 12 12 11 11
8 5 9 18 22 21 16 6 2 5 4 4 6 7 8 8 9 11 10 10 10 9 9 11 12 12 11 10 9 7 7 6 5 4 1 4 6 7 8 10 10 7 5 5 7 3 2 5 8 9 8 10 12 15 17 19 19 18 15 13 13 12 11 9 8 8 9 10 8 7 7 3 4 5 2 2 4 6 8 9 9 9 10 10 10 10 9 9
5 7 11 15 18 18 11 3 4 5 4 7 8 8 8 8 9 10 9 9 9 8 8 9 10 10 10 9 9 9 7 5 4 3 1 5 7 8 9 11 11 7 4 2 2 2 2 6 8 8 8 8 9 12 15 19 19 17 16 15 14 15 13 10 8 7 7 10 9 7 8 5 4 5 4 4 6 5 5 6 7 7 6 7 8 7 6 6
6 7 7 10 14 13 7 4 6 6 6 9 10 9 8 7 8 10 10 9 7 7 8 7 7 8 9 8 9 9 7 5 1 1 1 2 5 7 10 11 11 8 4 4 3 0 4 8 10 9 8 8 8 10 13 17 16 12 13 17 18 18 18 14 11 8 7 10 11 9 7 4 5 6 5 5 6 4 3 4 4 4 3 4 5 3 3 4
7 5 3 9 11 7 5 5 6 6 7 10 11 10 8 6 6 8 10 8 6 7 8 8 8 9 9 9 11 10 8 7 3 1 1 1 4 6 8 10 9 9 8 9 9 4 4 7 10 11 11 12 11 9 8 11 14 11 12 19 21 22 22 16 11 10 9 10 12 11 6 3 7 7 6 6 6 4 4 4 3 3 3 3 3 1 1 2
6 4 5 8 6 4 4 4 5 6 8 9 9 8 10 9 7 8 9 6 6 8 8 8 10 9 8 9 10 10 9 9 5 2 2 1 2 4 7 7 8 10 11 12 10 5 4 5 6 6 6 5 3 1 3 2 11 16 17 20 20 21 22 17 11 11 9 9 11 11 9 5 8 10 8 6 5 3 2 4 4 3 3 2 2 1 3 4
4 5 7 7 5 4 5 5 6 7 8 9 7 6 10 11 9 8 7 5 7 10 7 5 10 10 9 10 8 7 7 8 6 3 3 2 3 3 3 4 6 10 11 10 9 5 4 5 4 4 2 2 3 4 5 4 6 13 17 19 19 19 22 20 16 12 9 9 10 10 12 12 9 9 8 5 4 4 4 6 6 3 3 2 1 2 5 5
5 5 6 5 5 6 7 7 9 10 10 9 6 6 9 11 10 9 7 6 7 9 6 4 9 13 12 11 9 5 5 7 7 4 2 3 5 3 0 3 5 9 9 7 8 6 4 4 3 3 3 2 2 2 2 1 1 4 8 13 16 18 20 20 18 16 14 11 9 8 12 14 12 11 10 8 6 6 6 7 6 5 5 3 3 4 4 5
5 5 5 5 6 7 8 10 11 11 10 8 5 5 8 10 11 10 8 8 6 5 7 6 9 13 12 10 8 6 4 4 3 1 4 5 5 5 2 2 3 7 8 6 6 6 4 0 2 3 5 3 3 2 1 1 2 4 7 9 11 14 16 16 16 17 18 16 13 12 13 13 12 12 14 13 11 10 10 10 10 11 12 10 7 7 7 7
4 4 5 6 7 7 8 9 9 9 7 5 4 5 7 9 11 10 9 9 8 4 6 8 10 12 11 9 7 6 7 8 6 6 8 8 5 3 2 1 3 7 8 5 5 6 4 1 2 4 4 5 5 4 4 3 4 7 9 11 11 12 13 13 12 13 15 15 15 15 15 13 10 9 11 11 10 10 10 11 12 12 15 16 14 13 12 12
6 6 5 6 6 7 8 7 7 7 5 4 4 6 8 9 10 10 9 8 5 1 2 8 10 9 9 8 7 6 7 9 10 10 10 9 7 5 4 4 6 7 6 5 5 5 5 2 1 3 5 6 5 6 6 5 7 10 13 14 14 14 13 12 11 12 13 13 15 15 13 10 8 8 9 9 9 11 11 12 13 12 14 16 16 16 15 15
7 5 4 4 6 7 7 7 8 7 4 4 6 8 9 9 9 10 8 4 2 3 5 9 9 7 7 8 7 8 9 11 12 12 11 11 11 9 8 8 8 7 5 5 5 3 4 4 2 2 5 5 5 4 5 4 7 12 13 15 17 16 15 14 13 14 14 13 13 13 11 9 9 10 11 10 11 14 13 12 12 12 13 15 16 17 17 16
Wind_Direction
358 357 355 354 351 349 347 345 344 343 341 344 350 349 347 345 341 337 334 330 327 324 321 319 317 316 316 315 316 316 321 321 295 249 236 254 254 235 244 222 183 174 161 157 158 161 165 176 177 172 176 180 203 200 187 210 219 210 229 241 248 248 29 55 49 39 13 10 26 175 196 189 161 162 147 156 171 151 162 156 134 138 95 105 126 137 148 152
357 356 354 352 350 347 345 344 343 340 340 346 349 346 345 343 339 336 331 328 324 321 319 316 313 314 313 313 313 318 325 311 277 255 253 262 263 250 238 211 189 171 162 160 163 167 167 174 173 171 180 176 188 188 180 196 208 216 229 237 247 269 66 56 25 24 5 352 354 255 203 210 184 167 170 181 171 159 168 160 151 143 119 120 132 142 150 155
356 354 353 351 348 346 345 343 341 341 343 346 346 344 343 340 339 335 329 326 321 319 318 313 311 310 310 310 312 323 325 300 273 260 262 266 253 243 225 200 193 172 168 171 170 174 171 170 169 173 186 185 184 183 185 188 197 219 233 240 241 286 277 255 323 355 4 354 349 23 186 214 189 163 183 194 170 173 185 170 166 160 142 138 143 149 153 160
355 353 352 350 347 345 344 342 342 345 346 346 345 343 341 339 337 332 328 324 319 318 315 312 309 306 309 308 311 327 318 284 274 253 221 188 186 214 206 195 190 177 176 177 175 178 175 167 171 180 190 195 190 188 198 187 187 211 221 243 259 289 247 191 27 349 1 354 357 48 166 207 187 178 199 201 180 191 204 185 179 170 153 149 152 156 158 164
354 352 351 348 346 344 344 344 345 347 347 345 344 342 340 337 335 330 326 322 317 314 310 307 302 302 308 304 311 327 302 272 298 113 131 112 99 130 188 192 188 181 179 180 179 181 177 171 175 188 196 200 187 192 210 197 201 224 220 244 256 260 243 142 20 333 348 341 352 42 223 199 178 203 214 210 206 192 188 184 181 171 157 155 158 160 163 168
353 352 350 347 346 345 347 348 347 347 346 345 343 341 338 335 332 328 324 320 315 311 305 301 294 296 301 303 319 304 263 258 59 115 142 109 76 71 178 188 186 182 182 181 181 181 179 175 180 190 201 207 194 197 210 198 208 236 226 231 236 249 257 259 294 299 318 317 320 346 316 216 203 219 216 212 221 35 72 165 172 164 159 156 159 163 168 172
353 351 349 347 347 347 348 349 348 347 346 344 342 339 337 334 331 326 322 317 313 307 300 293 284 285 291 319 292 239 241 256 276 215 201 247 320 335 183 185 183 184 188 183 179 183 181 180 187 192 199 208 203 203 204 194 205 231 241 231 228 242 251 259 274 279 289 289 287 300 287 242 232 236 217 212 222 232 82 149 157 153 156 158 162 169 174 174
353 351 348 348 347 346 348 348 348 347 345 343 341 338 335 333 330 324 320 314 310 302 292 281 270 268 218 179 242 240 237 249 256 249 256 267 281 267 175 178 182 186 191 186 179 182 184 186 192 193 201 208 205 202 193 192 207 224 241 243 239 245 250 256 262 268 273 271 271 273 266 250 240 249 242 222 213 203 154 146 147 149 157 163 168 172 175 177
352 350 348 346 345 344 346 347 347 345 344 342 340 337 334 332 328 322 317 311 306 297 285 268 255 235 176 193 243 256 247 251 252 249 262 263 246 197 170 173 184 188 191 190 183 182 186 191 194 195 208 208 201 203 193 200 212 215 232 244 249 253 255 259 261 262 263 259 259 259 261 255 238 245 250 233 210 192 162 150 148 153 162 167 172 174 176 178
351 349 347 345 343 343 346 347 346 344 343 341 338 335 333 332 326 321 316 308 302 293 279 252 228 187 176 206 230 249 251 256 260 253 251 215 184 176 172 175 183 187 192 192 187 186 189 195 196 198 223 216 203 206 199 209 221 194 222 241 250 259 260 260 260 257 261 258 252 254 262 260 234 227 238 225 197 180 163 158 156 159 168 170 174 177 178 180
350 349 346 344 342 343 347 347 345 344 342 339 337 335 334 331 326 320 313 306 298 286 268 235 197 177 190 218 227 235 232 269 283 286 220 178 170 172 178 181 181 187 191 190 192 191 192 198 195 195 225 212 199 209 210 217 236 224 233 252 250 257 256 251 254 251 252 255 248 248 257 258 226 211 227 217 174 173 173 167 163 167 171 172 175 176 179 182
349 348 346 344 342 343 346 347 345 343 340 339 336 335 334 330 325 319 315 313 301 280 251 213 179 175 196 224 233 234 241 350 309 259 191 176 175 178 181 184 185 190 190 189 194 193 195 197 191 195 200 187 194 210 217 212 230 241 245 262 256 257 254 242 241 239 234 241 244 243 251 242 214 210 219 203 170 176 183 175 170 172 172 174 176 176 180 183
349 347 345 343 343 345 347 346 344 342 339 338 337 337 334 330 326 324 331 329 314 281 219 186 170 180 210 230 240 238 235 258 306 172 172 171 174 178 183 187 188 193 195 194 194 192 197 194 192 204 206 207 201 180 182 200 218 236 234 254 261 257 249 234 229 224 223 230 228 229 246 227 202 207 213 188 175 184 188 182 177 176 173 175 178 177 181 183
348 347 345 345 346 348 348 346 344 341 339 338 338 337 334 329 327 347 0 354 347 165 169 166 168 182 217 244 263 249 232 229 237 202 173 170 166 166 179 181 183 192 197 201 198 192 196 193 197 211 214 229 218 155 199 201 205 228 229 235 246 251 233 203 201 207 211 200 190 212 244 238 193 190 196 179 179 189 193 188 183 181 177 176 178 179 181 183
349 347 347 349 350 349 348 346 344 341 338 339 339 337 333 325 337 21 26 25 45 123 142 151 175 190 235 256 257 251 231 218 220 202 175 172 165 163 174 172 175 180 180 193 200 193 197 197 201 214 208 217 232 197 211 211 201 216 224 223 222 236 225 179 169 196 215 190 183 212 237 242 205 168 178 174 182 194 197 195 188 185 181 178 180 181 182 183
350 348 350 351 351 349 347 345 344 340 338 340 339 336 330 317 352 43 50 57 78 119 136 151 187 215 272 273 192 209 215 208 213 200 183 180 170 160 168 172 172 169 171 181 188 188 197 202 204 218 208 202 214 212 212 214 211 209 219 232 219 218 223 198 169 193 222 211 197 215 234 239 207 144 168 175 187 196 201 202 194 191 185 182 183 182 183 182
350 349 351 352 351 349 347 345 343 341 339 341 339 335 329 305 231 83 68 72 88 128 174 202 181 211 265 268 157 207 210 201 202 196 196 196 189 166 160 171 175 171 177 179 184 188 191 200 204 212 216 210 210 210 217 214 210 204 208 233 231 220 226 209 167 169 204 221 215 213 228 243 232 174 174 181 191 198 206 209 197 195 189 185 187 185 184 182
350 351 352 352 350 347 346 344 343 342 341 342 340 337 333 308 225 129 70 145 177 200 231 226 188 216 249 227 212 212 197 195 189 191 201 201 200 188 167 173 175 169 176 178 185 189 185 195 202 206 213 214 209 205 214 213 208 210 205 218 229 223 232 228 199 159 187 223 230 222 225 235 240 227 187 184 194 200 211 215 203 198 193 188 189 191 188 184
350 352 353 352 349 346 345 344 344 345 342 345 348 337 314 294 237 215 229 221 214 220 237 174 189 233 313 203 210 162 129 170 179 186 195 195 194 194 185 182 174 172 182 182 184 188 186 192 199 210 211 206 209 209 215 219 218 223 216 216 225 221 226 232 221 166 198 241 240 239 241 239 243 238 194 185 194 202 213 217 208 201 197 193 191 194 193 190
351 352 352 350 348 345 343 345 347 347 347 353 350 324 285 322 269 207 240 250 243 248 272 252 214 247 284 179 188 207 192 179 192 192 184 182 180 183 188 182 176 181 190 187 182 184 189 202 204 210 212 205 209 213 219 225 231 236 225 218 229 231 225 226 218 179 212 254 247 246 253 253 255 251 230 202 194 202 211 213 211 203 200 199 197 195 194 194
353 353 352 349 347 344 343 347 351 355 1 8 356 343 43 11 340 330 328 284 257 247 259 257 238 246 253 246 128 99 218 201 203 196 177 174 173 175 180 178 180 189 197 192 182 179 193 215 214 208 212 211 209 212 218 225 226 232 229 223 229 232 233 232 216 177 200 244 253 252 260 259 255 256 253 227 202 204 209 213 212 207 203 203 202 199 193 191
353 354 352 348 346 343 343 348 1 11 18 22 21 50 59 17 343 314 311 290 277 252 244 247 243 243 245 246 241 240 281 227 203 190 172 174 180 180 176 179 188 190 191 193 185 185 203 220 217 207 210 214 214 213 214 221 224 227 232 232 234 230 232 233 214 200 217 238 254 255 260 262 260 260 257 237 214 207 210 217 215 208 207 205 205 202 194 187
352 354 351 348 345 342 343 350 10 18 16 25 37 47 26 355 338 306 278 280 288 263 233 232 233 233 231 237 235 225 239 231 207 190 175 181 191 188 181 184 194 191 187 196 195 192 205 218 215 208 207 212 214 208 207 214 222 227 232 231 234 231 230 229 206 205 224 236 255 265 268 266 264 259 251 240 223 210 209 216 218 214 210 209 207 202 196 190
352 353 351 349 344 341 346 354 14 13 358 13 33 26 359 337 336 317 279 268 281 272 238 223 221 230 225 217 206 203 218 226 216 197 180 186 194 191 194 191 193 197 194 200 202 205 213 210 205 207 207 208 207 202 205 213 221 226 230 232 235 232 232 238 206 184 214 226 239 260 269 263 256 252 249 238 216 209 209 210 215 216 213 212 211 205 200 195
352 351 350 350 345 342 346 357 15 360 330 318 12 2 347 332 334 318 291 267 262 260 220 208 211 226 215 191 179 189 209 223 221 207 183 189 197 190 197 198 196 204 201 200 205 215 222 205 187 205 205 203 208 210 211 214 224 227 226 230 237 239 236 239 229 214 232 229 219 231 254 256 244 246 249 232 202 201 201 205 210 210 210 210 211 207 202 199
351 351 350 350 346 343 345 357 356 342 319 328 351 343 335 330 327 299 280 274 259 221 155 179 194 182 177 176 177 179 207 224 216 209 192 193 203 200 197 197 202 211 203 199 208 222 224 206 186 199 201 201 213 220 214 211 224 231 222 223 231 237 239 236 232 232 244 249 228 216 243 261 249 245 240 209 201 203 192 200 207 204 206 206 207 206 203 201
349 350 349 348 347 346 345 334 333 334 330 337 335 330 328 326 318 288 259 263 260 167 134 162 178 163 168 172 174 175 193 195 187 199 199 192 198 209 212 199 198 212 201 195 213 216 213 204 188 194 200 204 215 219 209 206 218 231 221 220 223 226 231 233 234 239 248 259 246 214 230 260 258 247 235 210 211 206 191 198 203 201 205 204 204 206 204 202
346 348 348 346 343 342 332 313 319 335 339 326 323 322 323 321 301 266 258 269 244 119 121 122 116 158 173 167 182 187 128 116 168 191 190 189 194 204 218 210 202 206 199 200 214 202 200 204 193 192 200 205 213 214 203 201 217 228 215 222 226 220 225 230 237 244 247 253 246 223 224 248 254 245 241 232 226 218 206 204 204 203 205 204 205 206 205 204
343 344 346 343 338 337 328 308 299 320 329 321 318 317 314 304 278 245 252 262 184 115 100 133 138 169 157 159 195 210 202 172 198 175 179 189 197 204 221 219 211 209 207 211 219 205 198 207 202 196 202 210 209 210 204 201 214 222 198 199 217 215 223 228 234 243 244 245 245 232 226 240 254 245 234 230 225 225 225 221 214 208 205 204 206 208 206 203
342 342 344 341 335 331 322 302 285 317 326 321 316 314 304 272 242 224 225 245 193 97 104 149 156 167 161 167 198 216 222 219 123 150 182 188 193 204 224 223 219 218 214 214 223 224 208 201 208 204 208 216 207 206 209 204 211 215 197 198 212 210 219 226 229 236 241 243 240 233 229 238 255 248 231 229 224 221 229 231 223 212 204 204 205 208 206 202
341 340 342 340 328 315 314 307 318 326 324 321 318 308 284 230 235 234 214 261 351 79 114 139 143 164 187 205 208 200 207 217 173 162 181 181 186 198 205 208 215 218 214 212 220 225 213 194 205 208 210 214 208 207 207 201 208 213 201 205 215 207 208 218 215 217 234 242 234 227 226 232 246 245 230 234 227 219 224 231 225 212 204 202 202 206 205 202
340 340 343 345 326 303 304 307 319 322 320 321 316 298 257 222 229 232 227 309 332 29 22 35 10 307 268 268 245 197 196 211 199 176 181 184 186 193 196 197 192 196 210 207 206 216 215 207 202 202 206 206 204 204 197 193 202 208 204 205 209 197 192 205 207 211 229 238 231 225 222 227 243 246 237 238 231 223 224 229 229 221 213 202 197 202 203 201
341 344 348 351 332 300 306 311 315 317 321 319 307 273 249 239 228 230 247 264 2 14 345 329 320 307 289 271 233 196 200 203 192 187 190 192 192 195 202 205 199 201 211 202 198 207 212 211 204 200 200 200 202 202 192 191 197 200 201 201 202 196 193 203 209 215 230 232 221 215 219 235 249 250 236 233 231 227 222 222 227 228 224 208 195 199 200 199
344 349 346 340 325 306 316 317 314 316 318 313 294 254 241 235 242 274 265 293 355 349 324 322 320 301 272 250 210 183 216 207 188 190 189 191 199 199 200 207 207 211 218 205 202 203 206 210 201 197 190 188 199 208 200 191 193 199 203 206 210 211 208 208 211 218 227 226 207 196 203 234 241 243 230 226 221 220 222 226 228 226 225 214 198 196 198 198
347 350 338 331 332 324 323 317 314 317 312 301 283 257 240 236 255 290 324 350 349 334 325 319 302 283 259 232 206 202 243 211 190 196 196 194 202 200 198 204 207 209 214 212 205 202 214 219 191 192 193 186 194 205 203 192 193 197 199 210 214 213 219 226 243 248 246 237 208 196 209 235 237 77 140 204 206 210 217 223 223 220 218 213 201 196 197 199
345 344 336 339 338 332 329 319 315 310 297 287 273 252 245 252 275 327 349 349 342 333 327 312 276 256 251 219 187 190 231 246 195 197 201 199 201 203 199 198 205 209 213 217 209 198 215 219 177 184 196 193 192 196 197 195 195 189 196 212 211 207 220 233 246 266 267 249 220 204 222 235 252 257 223 206 202 199 206 211 212 212 211 209 204 197 198 200
338 336 327 326 340 337 329 320 314 300 277 265 263 265 279 284 312 345 338 332 330 326 320 308 283 279 265 231 177 171 217 256 198 197 206 196 189 200 198 154 186 214 224 251 226 204 212 212 171 178 193 193 190 193 196 200 205 194 195 203 198 205 223 235 235 223 223 239 231 218 228 227 229 242 213 207 212 207 204 207 210 209 207 206 205 201 202 201
326 324 306 334 347 339 329 320 308 287 264 255 257 263 285 298 324 337 330 324 317 315 310 292 295 333 311 291 317 52 292 243 187 196 208 190 170 22 353 49 41 2 341 328 245 204 210 212 169 178 192 185 182 193 197 201 210 218 207 192 190 203 208 209 226 224 217 232 238 227 232 233 226 227 194 201 213 214 211 209 211 211 206 206 205 202 204 204
324 319 308 8 351 336 330 317 294 275 263 265 267 264 294 313 322 325 325 320 305 300 297 282 280 296 305 313 322 331 306 284 208 214 218 195 171 36 24 347 350 355 343 287 245 210 205 220 183 179 189 179 177 198 200 193 203 217 217 199 199 210 206 200 211 224 227 234 240 229 227 233 231 227 222 211 204 207 209 207 213 216 210 208 207 203 202 201
331 314 2 9 349 334 329 307 271 275 279 275 292 302 321 324 319 318 320 316 301 286 283 287 292 283 284 303 305 307 306 299 295 259 236 88 99 77 37 8 338 338 335 244 239 236 213 227 209 175 183 184 185 200 201 191 191 201 208 203 200 201 207 211 210 218 233 238 239 239 233 233 231 221 224 221 211 209 211 208 211 218 219 216 214 210 202 198
326 302 360 2 346 333 327 301 262 317 301 299 317 314 323 319 312 315 314 310 296 276 275 280 284 281 280 290 290 295 305 287 280 284 266 64 51 66 36 6 343 322 307 208 216 227 218 218 214 184 181 194 199 195 200 200 192 193 202 201 199 198 200 207 207 211 226 238 241 247 248 237 97 128 197 205 211 217 219 218 216 218 222 221 218 216 206 199
326 326 340 348 342 332 323 303 348 344 316 341 331 316 323 314 308 314 318 318 302 279 273 270 271 275 271 275 280 282 295 290 281 293 25 62 39 36 24 360 340 312 275 207 194 216 279 231 217 205 190 203 205 191 196 205 198 197 205 202 200 203 203 206 205 200 212 230 237 245 258 251 122 132 166 188 215 220 213 218 226 225 224 222 220 220 212 202
339 326 321 337 340 331 321 323 359 346 351 354 333 319 324 318 318 322 325 331 318 297 286 269 267 275 273 279 282 270 271 283 289 304 51 77 56 32 12 359 346 329 297 238 156 118 249 225 217 217 203 206 205 186 194 208 205 204 208 206 206 208 207 213 220 212 212 220 221 225 241 235 146 164 218 216 208 210 198 205 221 229 231 225 221 220 214 204
330 311 311 341 343 331 333 5 353 343 349 342 331 333 338 334 335 333 330 340 341 321 305 287 280 283 283 286 277 268 267 259 250 5 336 66 64 29 10 7 358 0 23 5 355 168 213 209 208 215 201 188 191 187 195 207 209 212 210 205 210 212 209 213 223 229 231 224 218 220 233 217 138 158 183 169 176 197 204 214 223 229 245 241 229 214 186 191
329 316 325 347 344 338 3 15 346 339 345 338 333 338 341 342 351 344 335 342 2 341 317 312 310 294 290 287 265 255 262 259 263 350 276 91 71 39 13 9 7 16 19 355 335 301 242 212 205 211 207 198 194 190 195 204 204 210 213 207 208 211 210 212 218 222 225 223 222 227 231 155 126 154 181 169 175 198 213 234 243 237 251 256 248 251 178 198
338 340 346 343 337 340 3 6 345 339 341 337 335 339 338 338 353 355 341 342 9 356 333 333 332 313 311 312 272 242 246 254 265 294 244 241 53 44 18 8 19 17 356 342 335 302 244 211 214 231 232 220 201 115 11 285 203 199 207 210 208 209 209 212 219 220 216 221 229 231 231 204 155 162 178 179 184 199 235 270 266 248 258 245 179 219 244 234
345 342 349 343 328 336 347 351 349 342 335 332 332 332 330 332 343 357 353 350 2 358 341 339 352 348 350 345 309 256 248 244 239 251 258 320 357 24 28 19 25 9 346 342 351 324 229 194 212 260 300 343 356 16 13 343 214 200 205 209 209 209 210 213 221 221 212 221 231 222 221 228 208 178 176 182 209 233 249 261 262 277 331 357 43 274 237 210
343 336 353 345 317 329 335 331 331 326 323 327 325 317 325 333 341 349 355 344 347 5 5 346 357 358 355 351 332 294 264 240 229 239 275 336 344 332 44 82 45 12 349 352 14 353 262 200 183 240 266 282 303 328 3 344 252 221 214 209 208 211 213 218 225 226 221 228 241 226 218 227 232 228 232 241 251 256 258 264 273 291 302 313 342 311 253 208
336 324 344 340 318 315 313 311 312 313 321 328 320 322 331 335 338 346 349 327 319 15 25 355 351 352 346 342 334 325 328 300 252 346 350 334 334 324 281 159 78 24 358 357 20 0 306 217 89 285 274 241 227 244 273 250 232 233 233 222 217 219 223 227 233 234 234 238 243 243 240 239 238 245 255 258 258 259 263 270 275 279 284 290 299 287 260 254
335 329 332 323 314 309 303 303 304 307 319 320 312 343 344 332 338 346 337 321 316 3 25 354 343 341 333 329 323 315 338 343 332 340 340 327 324 330 304 264 30 9 354 356 12 351 327 32 30 311 271 220 212 212 212 233 246 243 240 234 230 229 230 230 232 235 241 244 245 246 251 250 242 248 262 265 264 262 264 269 273 277 284 287 284 275 266 268
326 325 317 305 309 311 307 309 310 304 311 318 323 344 340 328 335 335 326 331 336 312 349 339 335 329 317 314 311 302 318 328 314 309 316 310 302 314 313 314 339 343 340 350 353 334 326 336 339 285 246 208 187 198 216 241 258 251 241 232 228 227 228 228 226 228 233 239 245 247 248 248 246 252 259 260 262 265 266 270 272 273 276 279 280 279 276 276
324 312 302 292 296 305 307 309 308 302 311 331 324 321 320 316 321 322 322 346 350 287 304 323 323 316 306 305 311 311 308 305 297 294 296 289 283 287 285 284 299 308 312 323 323 318 321 315 306 258 240 199 158 188 237 251 250 247 237 226 224 223 226 229 227 227 228 230 238 243 244 248 251 251 252 250 251 257 260 263 267 269 272 276 279 280 280 281